www.pogodaiklimat.ru

Погода и климат >> Архив погоды >> Австрия >> Грац университет


ПОГОДА в Граце университет

  • Прогноз погоды в Граце университет
  • Монитор погоды в Граце университет

АРХИВ ПОГОДЫ в Граце университет

Время (UTC), дата Ветер
(напр.,м/с)
 
Видим.   Явления Облачность Т
(С)
Тd
(С)
f
(%)
Тe
(С)
Тes
(С)
Комфортность P
(гПа)
Po
(гПа)
Тmin
(С)
Tmax
(С)
R
(мм)
R24
(мм)
S
(см)
10 11.09 Ю 1 н/о н/о +20.4 +12.0 59 +23 +23 комфорт 1022.6 979.0
11 11.09 В 1 н/о н/о +21.6 +10.6 50 +23 +23 комфорт 1022.3 978.9
12 11.09 Ю 2 н/о н/о +22.3 +8.7 42 +24 +24 комфорт 1022.2 978.8
13 11.09 ЮЗ 1 н/о н/о +22.9 +8.8 41 +24 +24 комфорт 1021.8 978.5
14 11.09 ЮВ 1 н/о н/о +22.8 +8.6 40 +24 +24 комфорт 1021.5 978.2
15 11.09 В 1 н/о н/о +22.4 +9.7 44 +24 +24 комфорт 1021.3 978.0
16 11.09 ЮВ 1 н/о н/о +21.6 +10.7 50 +23 +23 комфорт 1021.8 978.4
17 11.09 ЮВ 1 н/о н/о +20.8 +11.6 56 +24 +24 комфорт 1022.2 978.7
18 11.09 СВ 1 н/о н/о +18.4 +13.0 71 +20 +20 1023.2 979.3 +11.4 +23.6
19 11.09 СВ 2 н/о н/о +16.6 +13.1 80 +17 +17 1024.2 980.0
20 11.09 СВ 2 н/о н/о +15.6 +12.6 82 +15 +15 1024.9 980.5
21 11.09 С 1 н/о н/о +14.7 +12.4 86 +15 +15 1025.6 981.0
22 11.09 С 1 н/о н/о +14.8 +12.0 83 +15 +15 1026.0 981.4
23 11.09 СЗ 2 н/о н/о +14.8 +11.5 81 +14 +14 1026.4 981.8
00 12.09 С 1 н/о н/о +13.9 +11.2 84 +14 +14 1026.3 981.6
01 12.09 С 2 н/о н/о +13.6 +10.8 83 +13 +13 1026.7 981.9
02 12.09 С 1 н/о н/о +12.9 +10.7 86 +13 +13 1027.0 982.1
03 12.09 С 2 н/о н/о +12.7 +10.5 86 +12 +12 1027.3 982.3
04 12.09 СЗ 4 н/о н/о +13.3 +10.1 81 +12 +12 1027.6 982.7
05 12.09 СЗ 2 н/о н/о +12.4 +9.9 85 +11 +11 1028.5 983.4
06 12.09 В 2 н/о н/о +12.5 +10.5 88 +12 +12 1029.1 984.0 +11.8 +18.7
07 12.09 Ю 1 н/о н/о +15.4 +11.1 76 +16 +16 1029.0 984.4
08 12.09 Ю 2 н/о н/о +19.6 +12.5 64 +22 +22 комфорт 1029.1 985.1
09 12.09 Ю 1 н/о н/о +22.0 +10.3 47 +24 +24 комфорт 1029.1 985.4
10 12.09 СЗ 2 н/о н/о +22.9 +8.6 40 +24 +24 комфорт 1029.0 985.4
11 12.09 С 2 н/о н/о +24.4 +10.3 41 +25 +25 комфорт 1028.6 985.3
12 12.09 З 1 н/о н/о +24.8 +9.3 37 +25 +25 комфорт 1028.4 985.1
13 12.09 СЗ 1 н/о н/о +25.2 +7.7 33 +25 +25 комфорт 1027.8 984.6
14 12.09 СЗ 2 н/о н/о +24.1 +8.3 36 +25 +25 комфорт 1028.1 984.7
15 12.09 СЗ 3 н/о н/о +24.0 +10.6 43 +25 +25 комфорт 1027.8 984.5
16 12.09 С 3 н/о н/о +23.3 +10.6 45 +25 +25 комфорт 1027.9 984.5
17 12.09 СЗ 3 н/о н/о +22.2 +10.8 48 +24 +24 комфорт 1028.5 984.9
18 12.09 СЗ 3 н/о н/о +20.8 +10.8 53 +23 +23 комфорт 1029.0 985.2 +12.3 +25.9
20 12.09 СВ 2 н/о н/о +16.3 +12.3 77 +16 +16 1030.6 986.0
21 12.09 С 1 н/о н/о +15.5 +11.8 79 +16 +16 1031.1 986.4
22 12.09 СВ 1 н/о н/о +15.2 +11.7 80 +16 +16 1031.4 986.6
23 12.09 С 2 н/о н/о +15.2 +11.3 78 +15 +15 1031.6 986.8
00 13.09 С 2 н/о н/о +14.4 +11.1 81 +14 +14 1031.6 986.7
01 13.09 С 2 н/о н/о +13.8 +11.1 84 +13 +13 1031.5 986.5
02 13.09 СЗ 3 н/о н/о +13.9 +10.9 82 +13 +13 1031.5 986.5
03 13.09 С 2 н/о н/о +13.4 +10.7 84 +13 +13 1031.6 986.5
04 13.09 С 1 н/о н/о +13.9 +10.8 82 +14 +14 1031.5 986.5
05 13.09 С 1 н/о н/о +13.7 +10.8 83 +14 +14 1031.8 986.8
06 13.09 С 1 н/о н/о +14.7 +11.2 80 +15 +15 1031.6 986.7 +13.1 +20.8
07 13.09 СЗ 1 н/о н/о +15.7 +11.2 75 +16 +16 1031.4 986.7
08 13.09 З 1 н/о н/о +20.2 +12.4 61 +23 +23 комфорт 1030.8 986.8
09 13.09 штиль 0 н/о н/о +22.8 +13.3 55 +26 +26 жарко 1030.0 986.4
10 13.09 ЮЗ 2 н/о н/о +23.2 +11.8 49 +26 +26 жарко 1029.4 985.9
11 13.09 Ю 2 н/о н/о +24.1 +11.1 44 +25 +25 комфорт 1028.9 985.5
12 13.09 ЮЗ 2 н/о н/о +25.3 +12.2 44 +27 +27 жарко 1028.0 984.9
13 13.09 Ю 2 н/о н/о +25.8 +11.7 41 +27 +27 жарко 1027.5 984.4
14 13.09 ЮВ 2 н/о н/о +25.7 +11.6 41 +27 +27 жарко 1027.2 984.1
15 13.09 Ю 2 н/о н/о +25.6 +11.9 42 +27 +27 жарко 1027.1 984.0
16 13.09 Ю 2 н/о н/о +24.9 +12.4 46 +27 +27 жарко 1026.9 983.8
17 13.09 Ю 2 н/о н/о +23.9 +12.1 48 +26 +26 жарко 1027.6 984.3
18 13.09 СВ 1 н/о н/о +20.8 +14.1 65 +25 +25 комфорт 1028.4 984.6 +14.5 +26.5
19 13.09 СВ 2 н/о н/о +18.8 +14.1 74 +20 +20 1029.2 985.1
20 13.09 СВ 2 н/о н/о +17.5 +13.8 79 +18 +18 1029.7 985.4 0.0
21 13.09 СВ 2 н/о н/о +16.8 +13.4 80 +17 +17 1030.1 985.7 0.0
22 13.09 СВ 2 н/о н/о +16.2 +13.2 82 +16 +16 1030.4 985.9
23 13.09 С 2 н/о н/о +16.0 +13.0 82 +16 +16 1030.2 985.6
00 14.09 С 1 н/о н/о +15.4 +12.8 84 +16 +16 1030.3 985.6 0.0
01 14.09 С 1 н/о н/о +15.4 +12.8 84 +16 +16 1030.0 985.3
02 14.09 СЗ 2 н/о н/о +16.0 +12.7 81 +16 +16 1029.9 985.3
03 14.09 СВ 1 н/о н/о +15.9 +13.2 84 +17 +17 1029.8 985.2
04 14.09 штиль 0 н/о н/о +15.9 +13.5 86 +16 +16 1029.8 985.2
05 14.09 В 1 н/о н/о +15.9 +13.5 86 +17 +17 1030.2 985.6
06 14.09 СВ 1 н/о н/о +16.5 +13.8 84 +17 +17 1030.7 986.2 +15.3 +21.3 0.0
07 14.09 штиль 0 н/о н/о +17.6 +14.1 80 +18 +18 1030.8 986.5
08 14.09 штиль 0 н/о н/о +18.4 +13.9 75 +19 +19 1030.9 986.7
09 14.09 ЮЗ 1 н/о н/о +19.4 +13.6 69 +22 +22 комфорт 1030.9 986.8
10 14.09 В 1 н/о н/о +20.6 +14.2 67 +24 +24 комфорт 1030.6 986.7
11 14.09 В 2 н/о н/о +21.0 +14.9 68 +25 +25 комфорт 1030.1 986.3
12 14.09 В 2 н/о н/о +20.9 +14.0 65 +24 +24 комфорт 1029.7 985.9
13 14.09 В 1 н/о н/о +21.5 +14.4 64 +24 +24 комфорт 1028.9 985.2
14 14.09 В 1 н/о н/о +21.3 +14.1 63 +24 +24 комфорт 1028.5 984.8
15 14.09 В 2 н/о н/о +21.2 +13.9 63 +24 +24 комфорт 1028.1 984.4
16 14.09 В 2 н/о н/о +20.9 +14.4 66 +24 +24 комфорт 1028.1 984.4
17 14.09 В 1 н/о н/о +20.1 +14.0 68 +23 +23 комфорт 1028.3 984.4
18 14.09 В 2 н/о н/о +19.3 +13.5 69 +21 +21 комфорт 1028.4 984.4 +16.3 +21.8
19 14.09 В 2 н/о н/о +18.8 +13.3 70 +20 +20 1028.8 984.7
20 14.09 В 2 н/о н/о +18.6 +13.3 71 +20 +20 1028.8 984.7
21 14.09 СВ 2 н/о н/о +18.4 +12.6 69 +19 +19 1029.3 985.1
22 14.09 штиль 0 н/о н/о +18.3 +12.4 68 +19 +19 1028.9 984.7
23 14.09 В 1 н/о н/о +18.0 +12.6 71 +19 +19 1029.1 984.9
00 15.09 В 1 н/о н/о +17.6 +12.0 70 +19 +19 1029.0 984.7
01 15.09 СВ 1 н/о н/о +17.2 +11.7 70 +18 +18 1028.7 984.4
02 15.09 СВ 1 н/о н/о +15.8 +12.2 79 +16 +16 1028.3 983.8
03 15.09 СВ 1 н/о н/о +14.8 +12.5 86 +15 +15 1028.0 983.3
04 15.09 В 1 н/о н/о +14.6 +12.2 86 +15 +15 1027.8 983.1
05 15.09 СВ 1 н/о н/о +14.6 +12.5 87 +15 +15 1028.0 983.3
06 15.09 штиль 0 н/о н/о +15.6 +11.4 76 +15 +15 1027.6 983.1 +14.2 +19.4
07 15.09 СВ 1 н/о н/о +16.5 +11.0 70 +17 +17 1027.7 983.3
08 15.09 З 1 н/о н/о +18.1 +11.5 65 +19 +19 1027.1 983.0
09 15.09 ЮВ 1 н/о н/о +19.4 +11.5 60 +22 +22 комфорт 1026.4 982.5
10 15.09 штиль 0 н/о н/о +21.1 +12.3 57 +23 +23 комфорт 1025.4 981.8
11 15.09 ЮВ 3 н/о н/о +21.7 +13.3 59 +24 +24 комфорт 1024.5 981.0
12 15.09 ЮЗ 1 н/о н/о +22.7 +13.2 55 +26 +26 жарко 1023.7 980.4
13 15.09 ЮВ 2 н/о н/о +24.0 +14.4 55 +27 +27 жарко 1022.7 979.6
14 15.09 ЮВ 2 н/о н/о +23.3 +14.4 57 +27 +27 душно 1021.9 978.8
15 15.09 ЮЗ 1 н/о н/о +23.5 +15.2 60 +26 +26 жарко 1021.6 978.5
16 15.09 Ю 1 н/о н/о +23.3 +15.2 60 +27 +27 душно 1021.0 977.9
17 15.09 Ю 1 н/о н/о +22.5 +15.2 63 +26 +26 жарко 1020.9 977.7
18 15.09 СВ 2 н/о н/о +20.2 +15.8 76 +24 +24 комфорт 1021.0 977.5 +15.4 +24.3
19 15.09 СВ 2 н/о н/о +18.4 +15.5 83 +19 +19 1021.4 977.6
20 15.09 СВ 2 н/о н/о +17.4 +15.1 86 +18 +18 1021.4 977.5
21 15.09 С 1 н/о н/о +16.6 +14.8 89 +17 +17 1021.2 977.1
22 15.09 СЗ 1 н/о н/о +16.3 +14.5 89 +17 +17 1020.9 976.8
23 15.09 С 2 н/о н/о +15.7 +14.0 90 +16 +16 1021.0 976.8
00 16.09 С 1 н/о н/о +14.7 +13.7 94 +15 +15 1020.6 976.3
01 16.09 СВ 1 н/о н/о +14.1 +13.0 93 +14 +14 1020.4 976.0
02 16.09 СВ 2 н/о н/о +13.5 +12.6 94 +13 +13 1020.4 975.9
03 16.09 СВ 1 н/о н/о +13.4 +12.5 94 +13 +13 1020.2 975.7
04 16.09 СВ 2 н/о н/о +13.0 +12.1 94 +12 +12 1020.3 975.7
05 16.09 СВ 1 н/о н/о +12.9 +12.0 94 +13 +13 1020.4 975.8
06 16.09 С 1 н/о н/о +13.9 +12.8 93 +14 +14 1020.3 975.8 +12.7 +20.5
07 16.09 СЗ 2 н/о н/о +17.3 +13.8 80 +18 +18 1019.8 975.9
08 16.09 З 1 н/о н/о +21.1 +14.3 65 +24 +24 комфорт 1019.0 975.7
09 16.09 СЗ 1 н/о н/о +24.1 +14.6 55 +27 +27 жарко 1018.6 975.7
10 16.09 Ю 1 н/о н/о +25.3 +14.4 51 +28 +28 жарко 1017.9 975.2
11 16.09 Ю 2 н/о н/о +26.0 +13.9 47 +28 +28 жарко 1017.2 974.6
12 16.09 ЮЗ 2 н/о н/о +26.8 +14.4 47 +29 +29 жарко 1016.2 973.8
13 16.09 ЮЗ 3 н/о н/о +27.5 +13.5 42 +29 +29 жарко 1015.3 973.0
14 16.09 Ю 2 н/о н/о +27.4 +13.5 42 +29 +29 жарко 1014.7 972.4
15 16.09 Ю 2 н/о н/о +26.4 +14.0 46 +29 +29 жарко 1014.4 972.0
16 16.09 ЮВ 2 н/о н/о +25.8 +14.5 50 +28 +28 жарко 1014.4 971.9
17 16.09 В 1 н/о н/о +24.3 +15.1 56 +27 +27 жарко 1014.3 971.6
18 16.09 СВ 2 н/о н/о +22.0 +16.8 72 +26 +26 душно 1014.9 971.9 +13.6 +28.0
19 16.09 СВ 2 н/о н/о +20.4 +16.5 78 +24 +24 комфорт 1015.2 972.0
20 16.09 СВ 2 н/о н/о +19.8 +16.0 79 +23 +23 комфорт 1015.4 972.1
21 16.09 СВ 2 н/о н/о +19.1 +15.9 82 +21 +21 комфорт 1015.4 972.0
22 16.09 СВ 2 н/о н/о +18.7 +15.7 83 +20 +20 1015.4 971.9
23 16.09 С 1 н/о н/о +18.6 +15.6 83 +21 +21 комфорт 1015.1 971.6
00 17.09 СВ 1 н/о н/о +18.8 +15.5 81 +21 +21 комфорт 1015.3 971.8
01 17.09 штиль 0 н/о осадки н/о +18.5 +16.4 88 +19 +19 1014.6 971.1 0.6
02 17.09 Ю 1 н/о в посл. час осадки н/о +18.0 +16.8 93 +19 +19 1014.6 971.1 0.1
03 17.09 В 1 н/о ливневой дождь н/о +17.8 +16.9 94 +19 +19 1014.7 971.1 0.7
04 17.09 СВ 1 н/о в посл. час осадки н/о +17.5 +16.3 93 +19 +19 1014.8 971.2 0.1
05 17.09 СВ 1 н/о н/о +17.1 +16.1 94 +18 +18 1014.9 971.2
06 17.09 С 2 н/о {ливн. осадки} н/о +17.8 +15.8 88 +18 +18 1015.1 971.5 +17.0 +22.2 0.8
07 17.09 С 1 н/о н/о +18.7 +15.8 83 +21 +21 комфорт 1015.3 971.8
08 17.09 штиль 0 н/о н/о +19.9 +16.2 79 +22 +22 комфорт 1015.4 972.1
09 17.09 ЮВ 2 н/о н/о +21.5 +15.1 67 +25 +25 комфорт 1014.9 971.8
10 17.09 Ю 2 н/о н/о +23.2 +15.3 61 +27 +27 душно 1014.2 971.4
11 17.09 Ю 2 н/о н/о +23.7 +14.6 57 +26 +26 жарко 1013.8 971.1
12 17.09 В 2 н/о н/о +24.1 +16.2 61 +27 +27 жарко 1013.0 970.4
13 17.09 ЮВ 2 н/о н/о +24.3 +14.3 54 +27 +27 жарко 1012.5 969.9
14 17.09 Ю 1 н/о н/о +24.8 +14.8 54 +28 +28 жарко 1011.6 969.1
15 17.09 ЮВ 3 н/о н/о +24.6 +15.3 56 +28 +28 душно 1011.3 968.8
16 17.09 ЮЗ 3 н/о н/о +24.3 +16.1 60 +28 +28 душно 1011.3 968.8
17 17.09 Ю 2 н/о н/о +23.1 +16.2 65 +28 +28 душно 1011.5 968.8
18 17.09 С 1 н/о н/о +21.2 +16.4 74 +25 +25 комфорт 1012.5 969.5 +17.5 +25.4
19 17.09 СВ 2 н/о н/о +19.6 +16.3 81 +22 +22 комфорт 1013.3 970.0
20 17.09 СВ 2 н/о н/о +18.8 +16.2 85 +20 +20 1013.7 970.3
21 17.09 Ю 1 н/о н/о +18.1 +15.9 87 +19 +19 1014.3 970.8
22 17.09 СВ 1 н/о н/о +17.2 +15.5 90 +18 +18 1014.8 971.1
23 17.09 СВ 2 н/о н/о +16.2 +15.0 93 +16 +16 1015.3 971.4
00 18.09 СВ 1 н/о н/о +15.5 +14.5 94 +16 +16 1015.6 971.6
01 18.09 штиль 0 н/о н/о +15.5 +14.5 94 +15 +15 1015.9 971.9
02 18.09 СВ 1 н/о н/о +14.7 +13.7 94 +15 +15 1016.5 972.3
03 18.09 В 1 н/о н/о +14.1 +13.1 94 +14 +14 1017.0 972.7
04 18.09 СВ 1 н/о н/о +14.1 +13.1 94 +14 +14 1017.8 973.5
05 18.09 В 1 н/о н/о +13.3 +12.0 92 +13 +13 1018.8 974.3
06 18.09 СВ 1 н/о н/о +13.6 +11.8 89 +14 +14 1019.6 975.1 +13.0 +21.6
07 18.09 Ю 2 н/о н/о +15.2 +12.0 81 +15 +15 1020.0 975.7
08 18.09 ЮВ 2 н/о н/о +16.1 +11.1 72 +16 +16 1021.1 976.9

 

Местоположение метеостанции Грац университет (Австрия): широта 47.12 долгота 15.45 высота над уровнем моря 366 м.

В архиве по умолчанию представлена погода в Граце университет за последнюю неделю. Архивные данные за месяц целиком и за предыдущие месяцы, начиная с января 2011 года, Вы можете получить, выбрав интересующий диапазон дат из раскрывающегося списка и нажав кнопку "Ввод!".


*Определитесь, кто Вы:
робот инопланетянин человек

Внимание! Время в таблицах - всемирное. Для получения местного времени необходимо прибавить поправку, которая равна 1 ч.

Смотрите также архив погоды в соседних городах и на ближайших метеорологических станциях:

Погода в Санкт Радегунд бай Грац (Австрия) (6 км)
Погода на Шёкле (Австрия) (9 км)
Погода в Ласницхёэ (Австрия) (11 км)
Погода в Граце (Австрия) (13 км)
Погода в Кёфлаге (Австрия) (29 км)
Погода в Брукк-ан-дер-Муре (Австрия) (36 км)
Погода в Дойчландсберге (Австрия) (37 км)
Погода в Фельбахе (Австрия) (38 км)
Погода в Фишбахе (Австрия) (38 км)
Погода в Капфенберге (Австрия) (38 км)

Пояснения к столбцам:

Ветер - указаны скорость ветра в м/с - средняя за 10 мин, порывы в срок и между сроками (в фигурных скобках) и направление, откуда дует ветер: С - северный, СВ - северо-восточный, В - восточный, ЮВ - юго-восточный, Ю - южный, ЮЗ - юго-западный, З - западный, СЗ - северо-западный.
Видимость - горизонтальная дальность видимости в метрах или километрах. При видимости от 1 до 10 км при отсутствии осадков обычно наблюдается дымка, при ухудшении видимости до 1 км и менее - туман. В сухую погоду видимость может ухудшаться дымом, пылью или мглою.
Явления - указаны атмосферные явления, наблюдавшиеся в срок или в последний час перед сроком; фигурными скобками обозначены явления, наблюдавшиеся между сроками (за 1-3 часа до срока); квадратными скобками обозначены град или гололедные отложения с указанием их диаметра в мм.
Облачность - указаны через наклонную черту общая и нижняя облачность в баллах и высота нижней границы облаков в метрах; квадратными скобками обозначены формы облаков: Ci - перистые, Cs - перисто-слоистые, Cc - перисто-кучевые, Ac - высококучевые, As - высокослоистые, Sc - слоисто-кучевые, Ns - слоисто-дождевые, Cu - кучевые, Cb - кучево-дождевые. Подробнее классификацию облаков см. в Атласе облаков (PDF).
T - Температура воздуха - температура, измеренная на высоте 2 м над землей.
Td - Температура точки росы - температура, при понижении до которой содержащийся в воздухе водяной пар достигнет насыщения.
f - Относительная влажность воздуха - влажноcть воздуха, измеренная на высоте 2 м над землей.
Te - Эффективная температура - температура, которую ощущает одетый по сезону человек в тени. Характеристика душности погоды. При расчете учитывается влияние влажности воздуха и скорости ветра на теплоощущения человека.
Tes - Эффективная температура на солнце - температура, которую ощущает человек, с поправкой на солнечный нагрев. Характеристика знойности погоды. Зависит от высоты солнца над горизонтом, облачности и скорости ветра. Ночью, в пасмурную погоду, а также при ветре 12 м/с и более поправка равна нулю.
P - Атмосферное давление - приведенное к уровню моря атмосферное давление.
Po - Атмосферное давление - измеренное на уровне метеостанции атмосферное давление.
Tmin - Минимальная температура - минимум температуры воздуха на высоте 2 м над землей.
Tmax - Максимальная температура - максимум температуры воздуха на высоте 2 м над землей.
R - Количество осадков - Количество выпавших осадков за период времени, мм. При наведении курсора мыши на число - период времени, за который выпало указанное количество осадков.
R24 - Количество осадков - Количество выпавших осадков за 24 часа, мм.
S - Снежный покров - Высота снежного покрова, см. При наведении курсора мыши на число - состояние снежного покрова и степень покрытия местности в баллах.